Погода в Зимовники

Погода в Зимовники : погода сейчас, прогноз погоды и архив. Всё, что Вы хотите узнать о погоде в Зимовники!

Поиск расширенной информации на нашем сайте:

Другие новости

Новости СМИ2

Главная страница сайта

Новости сайта

03.07.2017

Напоминаем, что на нашем специализированном сайте Метеоцентр.Азия вы можете получить высокодетализированные автоматические прогнозы погоды по пунктам России, СНГ и мира в авиационном формате (включающие направление и скорость ветра, видимость, явления погоды, количество и форму облачности, нижнюю и верхнюю границу облачности).


Погода в Зимовники - сегодня

Время (UTC), дата Ветер
(°,м/с) 
Видим.   Явления Облачность Т
(°С)
Тd
(°С)
f(%) Тe
(°С)
Pmin
(гПа)
dP
(гПа)
Po
(мм)
O2
(г/м3)
Тmin Tmax R s Состояние
почвы
21 17.04.18 160 (Ю) 10 км    8/0 верхняя 
[Ci fib]
+10.9 +0.9 50 +12  1022.2  0.5  760  294           
00 18.04.18 160 (Ю) 10 км    4/0 верхняя 
[Ci fib]
+9.9 +1.9 57 +11  1021.6  -0.6  760  295           
03 18.04.18 150 (ЮВ) 10 км    9/0 верхняя 
[Cs]
+9.3 +2.4 62 +9  1021.4  -0.2  759  296  +8.8        сухая 
06 18.04.18 190 (Ю) 10 км    9/0 средняя, верхняя 
[Ac trans|Cs]
+14.2 +5.5 56 +15  1021.4  0.1  760  290           
09 18.04.18 200 (Ю) 10 км    9/0 верхняя 
[Cs]
+20.8 +6 38 +21  1019.8  -1.4  758  283           
12 18.04.18 240 (ЮЗ) 10 км    8/0 верхняя 
[Cs]
+23.1 +6.8 35 +23  1017.6  -2.1  757  280           
15 18.04.18 260 (З) 10 км    10/3 600 м кучево-дожд., средняя 
[Cb cap|As op]
+20.4 +6.7 41 +20  1016.6  -1.1  756  282    +23.6       
18 18.04.18 260 (З) 10 км    10/0 средняя 
[Ac und]
+16 +6.4 53 +17  1016.5  -0.2  756  287           
21 18.04.18 240 (ЮЗ) 10 км    10/0 средняя 
[Ac und]
+14.9 +7.7 62 +16  1014.7  -1.8  755  287           
00 19.04.18 220 (ЮЗ) 10 км    10/0 средняя 
[Ac und]
+13 +6.3 64 +13  1012.3  -2.4  753  289           
03 19.04.18 260 (З) 10 км  {ливн. осадки}  9/3 600 м кучево-дожд., средняя 
[Cb cap|Ac As]
+10.9 +8.8 87 +12  1010.5  -1.8  751  290  +10.9    0.4     
06 19.04.18 250 (З) 10 км  {ливн. осадки}  9/0 верхняя 
[Ci fib]
+14.6 +10.2 75 +15  1008.9  -1.5  750  285  +10.8         
09 19.04.18 260 (З) 6-12{16}  10 км    9/9 1000 м 
[Cu med, cong]
+17.3 +3.6 40 +17  1007.4  -1.4  749  283           
12 19.04.18 280 (З) 4{13}  10 км  {ливн. осадки}  9/3 600 м кучево-дожд., средняя 
[Cb cap|Ac trans]
+16.2 +4.9 47 +16  1005.5  -1.9  748  284           
15 19.04.18 250 (З) 10 км  {ливн. осадки}  9/0 средняя 
[Ac trans]
+14.2 +4.5 52 +14  1004.2  -1.4  747  285    +18.1  0.3     
18 19.04.18 220 (ЮЗ) 3{11}  10 км  {ливн. осадки}  9/0 средняя 
[Ac trans]
+10.6 +5.4 70 +10  1003.6  -0.6  746  289           
21 19.04.18 240 (ЮЗ) 4{11}  10 км    10/0 средняя 
[Ac und]
+10.3 +6.3 76 +9  1001.9  -1.7  745  288           
00 20.04.18 240 (ЮЗ) 4{10}  10 км    10/10 300 м 
[Sc]
+9.1 +7.2 88 +8  1000.2  -1.7  744  289           
03 20.04.18 250 (З) 4000 м  слаб. ливневой дождь  10/6 600 м кучево-дожд., средняя 
[Cb cap|Ac und]
+8.6 +7.5 93 +8  1000  -0.3  743  289  +8.5       
06 20.04.18 280 (З) 10 км  {ливн. осадки}  10/6 600 м кучево-дожд., средняя 
[Cb cap|Ac und]
+9.2 +6.8 85 +8  1000.6  0.6  744  289  +8.2         
09 20.04.18 270 (З) 4{10}  10 км    10/8 600 м кучево-дожд., средняя 
[Cb cap|Ac und]
+10.6 +6.7 77 +10  1001.2  0.7  744  288           
12 20.04.18 270 (З) 4-10{12}  10 км  {ливн. осадки}  10/8 600 м кучево-дожд., средняя 
[Cb cap|Ac und]
+10.5 +7.2 80 +10  1002.7  1.5  746  288           
15 20.04.18 290 (З) 10 км  слаб. ливневой дождь  10/6 600 м кучево-дожд., средняя 
[Cb cap|Ac und]
+9.6 +8.4 92 +9  1004.1  1.3  747  289    +12.1     
18 20.04.18 290 (З) 4000 м  дымка{ливн. осадки}  10/0 средняя 
[Ac und]
+9.4 +8.2 92 +9  1006.6  2.5  748  290           
21 20.04.18 320 (СЗ) 4000 м  дымка  10/0 средняя 
[Ac und]
+9.6 +8 90 +10  1008.1  1.5  750  290           
Время (UTC), дата Ветер
(°,м/с) 
Видим.   Явления Облачность Т
(°С)
Тd
(°С)
f(%) Тe
(°С)
Pmin
(гПа)
dP
(гПа)
Po
(мм)
O2
(г/м3)
Тmin Tmax R s Состояние
почвы

Для получения пояснительной информации подведите курсор к названию столбца.

ПОГОДА в Зимовники - архив

Всё, что Вы хотите узнать о погоде в Зимовники - удобно и подробно!

Выберите нужную дату (начиная с 1 января 2015* года) и нажмите кнопку "Найти".
Будут отображены архивные сводки погоды по пункту Зимовники, начиная с указанной даты.


Отображать данные в формате CSV (для использования в таблицах Excel)


Внимание! Наш архив погоды предназначен исключительно для личного некоммерческого использования в познавательных целях. Если Вам необходимы официальные справки о состоянии погоды (для производственных, юридических, коммерческих и т.п. целей), обращайтесь в органы Росгидромета.

*Примечание: данная дата относится к архиву по метеостанциям СССР (Россия, СНГ, Балтия).
Архив по метеостанциям Зарубежной Европы и Азии (кроме Китая) хранится 10 дней, по другим регионам земного шара (Китай, Африка, Америка, Австралия, Океания) - 1 день.

Зимовники - район местоположения метеостанции


Название, широта, долгота, высота метеостанции:
Зимовники 47.2°ш. 42.5°д. 72 м над ур. моря [Российская Федерация]

Дополнительная информация

В oтличие oт бoльшинства пoгoдных сайтoв мы публикуем пoдрoбную метеoинфoрмацию в детальнoм прoфессиoнальнoм фoрмате.

Характеристики температуры и влажнoсти вoздуха измеряются на высoте 2 м в тени вдали oт зданий и деревьев.
Скoрoсть ветра измеряется на высoте 10 м (на урoвне рoста челoвека скoрoсть ветра ниже в 1.5-2 раза). Если метеoстанция нахoдится в гoрoде или в лесу, тo скoрoсть ветра занижена на 2-4 м/с пo сравнению с oткрытым местoм. Скoрoсть ветра над акватoриями крупных рек и oзёр, а также на вершинах хoлмoв на 2-5 м/с выше, чем в oбычных услoвиях.
Атмoсфернoе давление в разных тoчках местнoсти мoжет значительнo oтличаться oт давления на метеoстанции, в зависимoсти oт услoвий рельефа (при пoдъёме на 10 м давление пoнижается примернo на 1 мм рт.ст.).